Location: 81360 Arifat, France
(43.7204°N, 2.3408°E)
Time: 19:28:20
(UTC+02:00)

GHALIB - Pass Details

Date: 04 June 2022
Orbit: 510 x 523 km, 97.6° (Epoch: 29 June)

Event Time Altitude Azimuth Distance (km) Brightness Sun altitude
Exits shadow 04:27:14 19° 258° (WSW) 1,282 ? -14.6°
Maximum altitude 04:27:38 19° 266° (W) 1,270 ? -14.5°
Drops below altitude 10° 04:30:25 10° 314° (NW) 1,757 ? -14.2°
Sets 04:33:00 0° 332° (NNW) 2,647 ? -13.9°
